Find Kosmos-1320

NORAD ID: 12975 Int'l Des: 1981-116 Owner: GUKOS Country: SU operational
LEOCIRCULAR

現在のビュー

3D地球を読み込み中...

About Kosmos-1320

Kosmos-1320 (NORAD 12975) is a satellite launched Nov 28, 1981 by GUKOS of SU. It operates in LEO, CIRCULAR orbit with a mass of 60.00 kg.

次回通過

Passes for default location (London). Set your location on the main map for personalized predictions.

高度履歴

Loading altitude history...

軌道要素

1 12975U 81116A 26195.23096360 -.00000003 00000-0 10817-3 0 9997
2 12975 73.9827 25.5464 0096936 237.5544 242.2078 12.28045610 498
Epoch: Jul 14, 2026 • Age: 8 hours

現在のステータス

高度 1619.2 km
遠地点 / 近地点 N/A
速度 7.04 km/s
衛星直下点 67.64°N, 29.34°E
打ち上げ日 Nov 28, 1981
運用期間 44.6 years
タイプ other

技術仕様

分類 Payload
質量 60.00 kg
乾燥質量 60.00 kg
総質量 60.00 kg
長さ 0.80 m
直径 0.80 m
スパン 0.80 m
形状 Poly
製造者 NPOPM
バスタイプ Strela-1 11F625
フェーズステータス In Orbit
所有者/国 GUKOS/SU

Most Searched